FW6664 Weather Reports


Display with metric or nautical units.
time (UTC)temp
F
wind
direction
speed
MPH
gust
MPH
rain 1hr
in
rain 24hr
in
rain mn
in
humidity
%
barometer
mb
20260906004020 90 296 6.0 6.0 0.00 0.00 0.00 33 1017.0
20260906003840 91 290 9.0 0.0 0.00 0.00 0.00 33 1017.0
20260906003518 90 267 5.0 6.0 0.00 0.00 0.00 33 1017.0
20260906003356 90 259 3.0 0.0 0.00 0.00 0.00 33 1017.0
20260906003045 90 223 5.0 7.0 0.00 0.00 0.00 33 1017.0
20260906002830 91 255 8.0 0.0 0.00 0.00 0.00 33 1017.0
20260906002538 90 213 4.0 7.0 0.00 0.00 0.00 33 1017.0
20260906002346 91 245 3.0 0.0 0.00 0.00 0.00 33 1017.0
20260906002030 91 216 6.0 6.0 0.00 0.00 0.00 33 1017.0
20260906001843 91 290 6.0 0.0 0.00 0.00 0.00 33 1017.0
20260906001523 90 276 4.0 6.0 0.00 0.00 0.00 33 1017.0
20260906001337 91 221 5.0 0.0 0.00 0.00 0.00 33 1017.0
20260906001016 91 210 3.0 6.0 0.00 0.00 0.00 33 1017.0
20260906000834 91 265 5.0 0.0 0.00 0.00 0.00 33 1017.0
20260906000511 91 293 2.0 6.0 0.00 0.00 0.00 33 1017.0
20260906000333 92 290 7.0 0.0 0.00 0.00 0.00 33 1017.0
20260906000006 92 263 4.0 6.0 0.00 0.00 0.00 33 1017.0
20260905235828 92 276 6.0 0.0 0.00 0.00 0.00 33 1017.0
20260905235538 92 275 4.0 6.0 0.00 0.00 0.00 33 1017.0
20260905235326 93 279 3.0 0.0 0.00 0.00 0.00 33 1017.0
20260905235034 92 224 3.0 6.0 0.00 0.00 0.00 33 1017.0
20260905234847 92 287 5.0 0.0 0.00 0.00 0.00 33 1017.0
20260905234510 91 257 5.0 6.0 0.00 0.00 0.00 33 1017.0
20260905234344 91 294 2.0 0.0 0.00 0.00 0.00 33 1017.0
20260905234003 90 239 4.0 6.0 0.00 0.00 0.00 33 1017.0
20260905233840 90 233 3.0 0.0 0.00 0.00 0.00 33 1017.0
20260905233556 90 296 6.0 6.0 0.00 0.00 0.00 33 1017.0
20260905233336 90 239 4.0 0.0 0.00 0.00 0.00 33 1017.0
20260905233048 90 215 5.0 6.0 0.00 0.00 0.00 33 1017.0
20260905232829 91 213 4.0 0.0 0.00 0.00 0.00 33 1017.0
20260905232542 91 228 4.0 6.0 0.00 0.00 0.00 33 1017.0
20260905232327 92 283 7.0 0.0 0.00 0.00 0.00 33 1017.0
20260905232036 92 269 4.0 7.0 0.00 0.00 0.00 33 1017.0
20260905231843 93 237 5.0 0.0 0.00 0.00 0.00 33 1017.0
20260905231529 93 235 4.0 7.0 0.00 0.00 0.00 33 1017.0
20260905231344 93 249 6.0 0.0 0.00 0.00 0.00 33 1017.0
20260905231021 93 281 3.0 5.0 0.00 0.00 0.00 33 1017.0
20260905230857 93 287 6.0 0.0 0.00 0.00 0.00 33 1017.0
20260905230549 92 254 4.0 5.0 0.00 0.00 0.00 33 1017.0
20260905230330 91 291 3.0 0.0 0.00 0.00 0.00 33 1017.0
20260905230043 90 285 3.0 5.0 0.00 0.00 0.00 33 1017.0
20260905225849 91 286 5.0 0.0 0.00 0.00 0.00 33 1017.0
20260905225513 90 245 3.0 8.0 0.00 0.00 0.00 33 1017.0
20260905225341 91 168 4.0 0.0 0.00 0.00 0.00 33 1017.0
20260905225104 91 229 5.0 8.0 0.00 0.00 0.00 33 1017.0
20260905225003 91 240 6.0 8.0 0.00 0.00 0.00 33 1017.0
20260905224834 92 284 3.0 0.0 0.00 0.00 0.00 33 1017.0
20260905224555 91 228 3.0 6.0 0.00 0.00 0.00 33 1017.0
20260905224330 92 216 7.0 0.0 0.00 0.00 0.00 33 1017.0
20260905224051 91 268 4.0 6.0 0.00 0.00 0.00 33 1017.0
20260905223849 92 217 2.0 0.0 0.00 0.00 0.00 33 1017.0
20260905223524 91 268 3.0 6.0 0.00 0.00 0.00 33 1017.0
20260905223347 91 241 4.0 0.0 0.00 0.00 0.00 33 1017.0
20260905223021 90 258 3.0 6.0 0.00 0.00 0.00 33 1017.0
20260905222844 91 233 2.0 0.0 0.00 0.00 0.00 33 1017.0
20260905222517 91 216 4.0 7.0 0.00 0.00 0.00 33 1017.0
20260905222341 92 223 6.0 0.0 0.00 0.00 0.00 33 1017.0
20260905222013 91 226 5.0 7.0 0.00 0.00 0.00 33 1017.0
20260905221836 92 284 5.0 0.0 0.00 0.00 0.00 33 1017.0
20260905221506 91 290 5.0 7.0 0.00 0.00 0.00 33 1017.0
20260905221334 92 248 2.0 0.0 0.00 0.00 0.00 33 1017.0
20260905221057 91 304 4.0 7.0 0.00 0.00 0.00 33 1017.0
20260905220830 91 286 3.0 0.0 0.00 0.00 0.00 33 1017.0
20260905220551 90 236 5.0 6.0 0.00 0.00 0.00 33 1017.0
20260905220327 91 296 5.0 0.0 0.00 0.00 0.00 33 1017.0
20260905220049 90 254 4.0 6.0 0.00 0.00 0.00 33 1017.0
20260905215908 90 297 2.0 0.0 0.00 0.00 0.00 33 1017.0
20260905215520 90 229 3.0 9.0 0.00 0.00 0.00 33 1017.0
20260905215342 91 255 7.0 0.0 0.00 0.00 0.00 33 1017.0
20260905215014 91 256 6.0 9.0 0.00 0.00 0.00 33 1017.0
20260905214838 92 276 3.0 0.0 0.00 0.00 0.00 33 1017.0
20260905214507 91 223 3.0 8.0 0.00 0.00 0.00 33 1017.0
20260905214334 92 289 7.0 0.0 0.00 0.00 0.00 33 1017.0
20260905214006 92 248 4.0 7.0 0.00 0.00 0.00 33 1017.0
20260905213832 92 222 6.0 0.0 0.00 0.00 0.00 33 1017.0
20260905213535 92 274 3.0 6.0 0.00 0.00 0.00 33 1017.0
20260905213348 92 260 4.0 0.0 0.00 0.00 0.00 33 1017.0
20260905213026 91 279 3.0 6.0 0.00 0.00 0.00 33 1017.0
20260905212844 92 229 7.0 0.0 0.00 0.00 0.00 33 1017.0
20260905212519 91 253 4.0 6.0 0.00 0.00 0.00 33 1017.0
20260905212341 92 218 6.0 0.0 0.00 0.00 0.00 33 1017.0
20260905212017 92 207 5.0 7.0 0.00 0.00 0.00 33 1017.0
20260905211838 92 275 6.0 0.0 0.00 0.00 0.00 33 1017.0
20260905211508 92 271 6.0 7.0 0.00 0.00 0.00 33 1017.0
20260905211336 92 208 4.0 0.0 0.00 0.00 0.00 33 1017.0
20260905211059 92 283 6.0 7.0 0.00 0.00 0.00 33 1017.0
20260905211003 92 235 4.0 7.0 0.00 0.00 0.00 33 1017.0
20260905210830 93 293 4.0 0.0 0.00 0.00 0.00 33 1017.0
20260905210553 92 238 5.0 7.0 0.00 0.00 0.00 33 1017.0
20260905210348 93 230 6.0 0.0 0.00 0.00 0.00 33 1017.0
20260905210036 92 244 4.0 6.0 0.00 0.00 0.00 33 1017.0
20260905205846 93 291 4.0 0.0 0.00 0.00 0.00 33 1017.0
20260905205526 92 226 3.0 6.0 0.00 0.00 0.00 33 1017.0
20260905205341 92 273 5.0 0.0 0.00 0.00 0.00 33 1017.0
20260905205016 92 221 6.0 6.0 0.00 0.00 0.00 33 1017.0
20260905204839 93 247 7.0 0.0 0.00 0.00 0.00 33 1017.0
20260905204511 92 286 6.0 7.0 0.00 0.00 0.00 33 1017.0
20260905204355 93 215 6.0 0.0 0.00 0.00 0.00 33 1017.0
20260905204039 92 217 3.0 7.0 0.00 0.00 0.00 33 1017.0
20260905203832 93 196 2.0 0.0 0.00 0.00 0.00 33 1017.0
20260905203538 92 281 6.0 7.0 0.00 0.00 0.00 33 1017.0
20260905203327 93 223 9.0 0.0 0.00 0.00 0.00 33 1017.0
20260905203028 94 225 5.0 7.0 0.00 0.00 0.00 33 1017.0
20260905202844 95 244 5.0 0.0 0.00 0.00 0.00 33 1017.0
20260905202525 94 276 3.0 6.0 0.00 0.00 0.00 33 1017.0
20260905202344 94 300 7.0 0.0 0.00 0.00 0.00 33 1017.0
20260905202021 93 276 4.0 6.0 0.00 0.00 0.00 33 1017.0
20260905201841 94 291 4.0 0.0 0.00 0.00 0.00 33 1017.0
20260905201515 94 263 5.0 6.0 0.00 0.00 0.00 33 1017.0
20260905201336 94 273 7.0 0.0 0.00 0.00 0.00 33 1017.0
20260905201008 94 285 4.0 6.0 0.00 0.00 0.00 33 1017.0
20260905200831 94 288 5.0 0.0 0.00 0.00 0.00 33 1017.0
20260905200559 94 224 1.0 4.0 0.00 0.00 0.00 33 1017.0
20260905200505 94 210 2.0 4.0 0.00 0.00 0.00 33 1017.0
20260905200328 94 223 8.0 0.0 0.00 0.00 0.00 33 1017.0
20260905200058 93 224 1.0 4.0 0.00 0.00 0.00 33 1017.0
20260905195828 93 289 3.0 0.0 0.00 0.00 0.00 33 1017.0
20260905195546 92 295 4.0 6.0 0.00 0.00 0.00 33 1017.0
20260905195402 93 314 3.0 0.0 0.00 0.00 0.00 33 1017.0
20260905195020 92 282 3.0 6.0 0.00 0.00 0.00 33 1017.0
20260905194841 93 261 4.0 0.0 0.00 0.00 0.00 33 1017.0
20260905194515 92 303 3.0 5.0 0.00 0.00 0.00 33 1017.0
20260905194336 93 228 1.0 0.0 0.00 0.00 0.00 33 1017.0
20260905194006 92 275 4.0 6.0 0.00 0.00 0.00 33 1017.0
20260905193832 93 270 6.0 0.0 0.00 0.00 0.00 33 1017.0
20260905193558 93 290 4.0 6.0 0.00 0.00 0.00 33 1017.0
20260905193328 93 294 6.0 0.0 0.00 0.00 0.00 33 1017.0
20260905193052 92 291 3.0 6.0 0.00 0.00 0.00 33 1017.0
20260905192906 93 286 5.0 0.0 0.00 0.00 0.00 33 1017.0
20260905192525 92 255 2.0 6.0 0.00 0.00 0.00 33 1017.0
20260905192341 92 243 1.0 0.0 0.00 0.00 0.00 33 1017.0
20260905192021 91 184 3.0 6.0 0.00 0.00 0.00 33 1017.0
20260905191837 92 261 5.0 0.0 0.00 0.00 0.00 33 1017.0
20260905191511 91 287 5.0 6.0 0.00 0.00 0.00 33 1017.0
20260905191354 91 292 3.0 0.0 0.00 0.00 0.00 33 1017.0
20260905191042 90 269 3.0 6.0 0.00 0.00 0.00 33 1017.0
20260905190830 90 219 3.0 0.0 0.00 0.00 0.00 33 1017.0
20260905190536 90 229 2.0 4.0 0.00 0.00 0.00 33 1017.0
20260905190346 90 276 3.0 0.0 0.00 0.00 0.00 33 1017.0
20260905190029 89 268 3.0 4.0 0.00 0.00 0.00 33 1017.0
20260905185904 89 278 9.0 0.0 0.00 0.00 0.00 33 1017.0
20260905185600 88 208 2.0 5.0 0.00 0.00 0.00 33 1017.0
20260905185335 89 170 2.0 0.0 0.00 0.00 0.00 33 1017.0
20260905185053 89 206 3.0 6.0 0.00 0.00 0.00 33 1017.0
20260905184834 89 301 3.0 0.0 0.00 0.00 0.00 33 1017.0
20260905184602 88 274 4.0 7.0 0.00 0.00 0.00 33 1017.0
20260905184351 88 287 4.0 0.0 0.00 0.00 0.00 33 1017.0
20260905184025 87 299 2.0 7.0 0.00 0.00 0.00 33 1017.0
20260905183828 88 269 5.0 0.0 0.00 0.00 0.00 33 1017.0
20260905183551 87 294 2.0 6.0 0.00 0.00 0.00 33 1017.0
20260905183344 87 276 5.0 0.0 0.00 0.00 0.00 33 1017.0
20260905183045 86 225 3.0 6.0 0.00 0.00 0.00 33 1017.0
20260905182840 87 292 7.0 0.0 0.00 0.00 0.00 33 1017.0
20260905182543 86 231 4.0 6.0 0.00 0.00 0.00 33 1017.0
20260905182336 87 276 3.0 0.0 0.00 0.00 0.00 33 1017.0
20260905182034 86 267 4.0 5.0 0.00 0.00 0.00 33 1017.0
20260905181831 86 267 3.0 0.0 0.00 0.00 0.00 33 1017.0
20260905181526 85 300 2.0 4.0 0.00 0.00 0.00 33 1017.0
20260905181327 85 224 4.0 0.0 0.00 0.00 0.00 33 1017.0
20260905181020 84 289 2.0 6.0 0.00 0.00 0.00 33 1017.0
20260905180844 84 289 3.0 0.0 0.00 0.00 0.00 33 1017.0
20260905180518 83 279 3.0 6.0 0.00 0.00 0.00 33 1017.0
20260905180327 83 279 7.0 0.0 0.00 0.00 0.00 33 1017.0
20260905180012 83 280 3.0 5.0 0.00 0.00 0.00 33 1017.0
20260905175843 83 292 1.0 0.0 0.00 0.00 0.00 33 1017.0
20260905175505 82 315 2.0 5.0 0.00 0.00 0.00 33 1017.0
20260905175401 83 292 3.0 0.0 0.00 0.00 0.00 33 1017.0
20260905175037 82 283 4.0 5.0 0.00 0.00 0.00 33 1017.0
20260905174836 82 264 4.0 0.0 0.00 0.00 0.00 33 1017.0
20260905174536 81 277 2.0 5.0 0.00 0.00 0.00 33 1017.0
20260905174333 82 239 4.0 0.0 0.00 0.00 0.00 33 1017.0
20260905174027 82 247 3.0 5.0 0.00 0.00 0.00 33 1017.0
20260905173832 82 273 4.0 0.0 0.00 0.00 0.00 33 1017.0
20260905173522 82 254 2.0 6.0 0.00 0.00 0.00 33 1017.0
20260905173329 82 279 3.0 0.0 0.00 0.00 0.00 33 1017.0
20260905173017 82 258 3.0 6.0 0.00 0.00 0.00 33 1017.0
20260905172906 82 232 5.0 0.0 0.00 0.00 0.00 33 1017.0
20260905172549 82 292 0.0 3.0 0.00 0.00 0.00 33 1017.0
20260905172404 82 298 1.0 0.0 0.00 0.00 0.00 33 1017.0
20260905172019 81 298 2.0 2.0 0.00 0.00 0.00 33 1017.0
20260905170110 80 316 2.0 3.0 0.00 0.00 0.00 33 1017.0
20260905170034 80 318 5.0 0.0 0.00 0.00 0.00 33 1017.0
20260905165653 80 318 1.0 1.0 0.00 0.00 0.00 33 1017.0
20260905150522 70 52 0.0 1.0 0.00 0.00 0.00 33 1017.0
20260905150337 70 52 1.0 0.0 0.00 0.00 0.00 33 1017.0
20260905150020 69 52 0.0 0.0 0.00 0.00 0.00 33 1017.0
20260905090336 63 217 0.0 0.0 0.00 0.00 0.00 33 1017.0
20260905090048 62 217 0.0 0.0 0.00 0.00 0.00 33 1017.0
20260905041543 66 233 0.0 1.0 0.00 0.00 0.00 33 1017.0
20260905041334 66 233 0.0 0.0 0.00 0.00 0.00 33 1017.0
20260905041037 66 233 0.0 1.0 0.00 0.00 0.00 33 1017.0
20260905040830 66 233 0.0 0.0 0.00 0.00 0.00 33 1017.0
20260905040530 66 233 0.0 2.0 0.00 0.00 0.00 33 1017.0
20260905040325 66 233 1.0 0.0 0.00 0.00 0.00 33 1017.0
20260905040027 66 233 1.0 2.0 0.00 0.00 0.00 33 1017.0
20260905035844 66 233 0.0 0.0 0.00 0.00 0.00 33 1017.0
20260905035520 66 233 1.0 1.0 0.00 0.00 0.00 33 1017.0
20260905035341 67 233 1.0 0.0 0.00 0.00 0.00 33 1017.0
20260905035015 66 233 0.0 2.0 0.00 0.00 0.00 33 1017.0
20260905034838 67 233 0.0 0.0 0.00 0.00 0.00 33 1017.0
20260905034509 66 233 0.0 2.0 0.00 0.00 0.00 33 1017.0
20260905034334 67 233 0.0 0.0 0.00 0.00 0.00 33 1017.0
20260905034101 67 233 1.0 2.0 0.00 0.00 0.00 33 1017.0
20260905034003 67 233 1.0 2.0 0.00 0.00 0.00 33 1017.0
20260905033831 67 233 2.0 0.0 0.00 0.00 0.00 33 1017.0
20260905033554 67 233 1.0 2.0 0.00 0.00 0.00 33 1017.0
20260905033325 67 233 2.0 0.0 0.00 0.00 0.00 33 1017.0
20260905033143 67 233 1.0 2.0 0.00 0.00 0.00 33 1017.0
20260905030348 69 279 2.0 0.0 0.00 0.00 0.00 33 1017.0
20260905030101 68 279 2.0 5.0 0.00 0.00 0.00 33 1017.0
20260905025826 69 279 1.0 0.0 0.00 0.00 0.00 33 1017.0
20260905025555 68 280 2.0 5.0 0.00 0.00 0.00 33 1017.0
20260905025324 69 224 4.0 0.0 0.00 0.00 0.00 33 1017.0
20260905025056 69 227 3.0 5.0 0.00 0.00 0.00 33 1017.0
20260905024843 69 225 3.0 0.0 0.00 0.00 0.00 33 1017.0
20260905024550 69 222 2.0 5.0 0.00 0.00 0.00 33 1017.0
20260905024339 70 221 3.0 0.0 0.00 0.00 0.00 33 1017.0
20260905024038 69 218 2.0 3.0 0.00 0.00 0.00 33 1017.0
20260905023834 70 218 3.0 0.0 0.00 0.00 0.00 33 1017.0
20260905023515 70 218 2.0 4.0 0.00 0.00 0.00 33 1017.0
20260905023333 70 218 4.0 0.0 0.00 0.00 0.00 33 1017.0
20260905023029 70 231 3.0 4.0 0.00 0.00 0.00 33 1017.0
20260905022849 71 232 2.0 0.0 0.00 0.00 0.00 33 1017.0
20260905022539 70 235 4.0 4.0 0.00 0.00 0.00 33 1017.0
20260905022326 71 225 5.0 0.0 0.00 0.00 0.00 33 1017.0
20260905022037 71 225 2.0 3.0 0.00 0.00 0.00 33 1017.0
20260905021827 72 225 2.0 0.0 0.00 0.00 0.00 33 1017.0
20260905021531 71 225 1.0 5.0 0.00 0.00 0.00 33 1017.0
20260905021324 72 225 5.0 0.0 0.00 0.00 0.00 33 1017.0
20260905021024 72 225 3.0 5.0 0.00 0.00 0.00 33 1017.0
20260905020843 73 225 3.0 0.0 0.00 0.00 0.00 33 1017.0
20260905020525 73 232 2.0 4.0 0.00 0.00 0.00 33 1017.0
20260905020339 73 232 3.0 0.0 0.00 0.00 0.00 33 1017.0
20260905020022 73 221 3.0 4.0 0.00 0.00 0.00 33 1017.0
20260905015832 74 250 2.0 0.0 0.00 0.00 0.00 33 1017.0
20260905015504 73 215 2.0 5.0 0.00 0.00 0.00 33 1017.0
20260905015348 74 227 3.0 0.0 0.00 0.00 0.00 33 1017.0
20260905015036 74 216 3.0 6.0 0.00 0.00 0.00 33 1017.0
20260905014825 75 221 5.0 0.0 0.00 0.00 0.00 33 1017.0
20260905014532 75 234 3.0 6.0 0.00 0.00 0.00 33 1017.0
20260905014344 75 231 5.0 0.0 0.00 0.00 0.00 33 1017.0
20260905014025 75 237 2.0 3.0 0.00 0.00 0.00 33 1017.0
20260905013838 76 235 6.0 0.0 0.00 0.00 0.00 33 1017.0
20260905013516 75 218 2.0 3.0 0.00 0.00 0.00 33 1017.0
20260905013331 76 218 3.0 0.0 0.00 0.00 0.00 33 1017.0
20260905013010 76 223 2.0 3.0 0.00 0.00 0.00 33 1017.0
20260905012849 76 242 4.0 0.0 0.00 0.00 0.00 33 1017.0
20260905012541 76 267 2.0 3.0 0.00 0.00 0.00 33 1017.0
20260905012407 76 234 5.0 0.0 0.00 0.00 0.00 33 1017.0
20260905012013 76 202 3.0 3.0 0.00 0.00 0.00 33 1017.0
20260905011840 77 175 2.0 0.0 0.00 0.00 0.00 33 1017.0
20260905011507 76 291 2.0 6.0 0.00 0.00 0.00 33 1017.0
20260905011335 77 293 3.0 0.0 0.00 0.00 0.00 33 1017.0
20260905011100 76 233 2.0 6.0 0.00 0.00 0.00 33 1017.0
20260905011001 76 237 3.0 6.0 0.00 0.00 0.00 33 1017.0
20260905010833 77 277 5.0 0.0 0.00 0.00 0.00 33 1017.0
20260905010553 76 290 4.0 6.0 0.00 0.00 0.00 33 1017.0
20260905010328 76 271 7.0 0.0 0.00 0.00 0.00 33 1017.0
20260905010047 76 238 4.0 6.0 0.00 0.00 0.00 33 1017.0
20260905005843 77 212 6.0 0.0 0.00 0.00 0.00 33 1017.0
20260905005543 77 221 4.0 5.0 0.00 0.00 0.00 33 1017.0
20260905005339 77 225 6.0 0.0 0.00 0.00 0.00 33 1017.0
20260905005032 77 239 4.0 5.0 0.00 0.00 0.00 33 1017.0
20260905004839 78 280 3.0 0.0 0.00 0.00 0.00 33 1017.0
20260905004524 78 239 2.0 6.0 0.00 0.00 0.00 33 1017.0
20260905004333 78 235 2.0 0.0 0.00 0.00 0.00 33 1017.0